Regional Weather Roundup
Issued by NWS

Home | Current Version | Previous Version | Graphics & Text | Print | Product List | Glossary On
Versions: 1 2 3 4 5 6 7 8 9 10 11 12 13 14 15 16 17 18 19 20 21 22 23 24 25 26 27 28 29 30 31 32 33 34 35 36 37 38 39 40 41 42 43 44 45 46 47 48 49 50
000
ASUS43 KBIS 260902
RWRND

NORTH DAKOTA REGIONAL WEATHER ROUNDUP
NATIONAL WEATHER SERVICE BISMARCK ND
400 AM CDT SUN MAR 26 2017

NOTE: "FAIR" INDICATES FEW OR NO CLOUDS BELOW 12,000 FEET WITH NO
SIGNIFICANT WEATHER AND/OR OBSTRUCTIONS TO VISIBILITY.


NDZ001>003-009>011-017-261000-
NORTHWEST NORTH DAKOTA

CITY           SKY/WX    TMP DP  RH WIND       PRES   REMARKS
WILLISTON      FAIR      44  34  67 E6        29.90S
MINOT          CLOUDY    41  34  76 W7        29.90S
MINOT AFB      CLOUDY    34  32  94 CALM      29.89S
$$

NDZ018>021-031>035-040>046-261000-
SOUTHWEST NORTH DAKOTA

CITY           SKY/WX    TMP DP  RH WIND       PRES   REMARKS
BISMARCK       CLOUDY    40  35  83 SE5       29.94R
DICKINSON      LGT RAIN  42  34  73 CALM      29.89S
GARRISON         N/A     37  32  82 VRB3      29.90S
HETTINGER ARPT CLOUDY    41  33  73 N6        29.90F
$$

NDZ004>008-012>016-024-026-027-054-261000-
NORTHEAST NORTH DAKOTA

CITY           SKY/WX    TMP DP  RH WIND       PRES   REMARKS
GRAND FORKS    CLOUDY    35  34  96 SW7       29.98S
GRND FRKS AFB  CLOUDY    34  33  98 SW8       29.97S
DEVILS LAKE    CLOUDY    34  32  92 S5        29.94S
$$

NDZ022-023-025-028>030-036>039-047>053-261000-
SOUTHEAST NORTH DAKOTA

CITY           SKY/WX    TMP DP  RH WIND       PRES   REMARKS
FARGO          CLOUDY    35  33  92 CALM      30.00R
JAMESTOWN      FOG       33  33 100 S5        29.94F VSB 1/4
$$





USA.gov is the U.S. government's official web portal to all federal, state and local government web resources and services.